Weather History for Roswell, NM

Change the Weather History Date:

Friday, October 19, 2012

  Actual Average Record
Temperature  
Mean Temperature 62 °F 60 °F  
Max Temperature 79 °F 75 °F 90 °F (1921)
Min Temperature 44 °F 45 °F 26 °F (1968)
Degree Days  
Heating Degree Days 3 6  
Month to date heating degree days 47 67  
Since 1 July heating degree days 56 83  
Cooling Degree Days 0 1  
Month to date cooling degree days 34 33  
Year to date cooling degree days 2333 1784  
Growing Degree Days 12 (Base 50)    
Moisture  
Dew Point 31 °F    
Average Humidity 40    
Maximum Humidity 65    
Minimum Humidity 15    
Precipitation  
Precipitation 0.00 in 0.04 in 1.47 in (1983)
Month to date precipitation 0.53 0.79  
Year to date precipitation 6.05 11.25  
Sea Level Pressure  
Sea Level Pressure 29.88 in    
Wind  
Wind Speed 5 mph (SSW)    
Max Wind Speed 13 mph    
Max Gust Speed 15 mph    
Visibility 10 miles    
Events      
T = Trace of Precipitation, MM = Missing Value Source: NWS Daily Summary

Daily Weather History Graph

Daily Weather History Graph

Search for Another Location

Airport:

Trip Planner

Search our weather history database for the weather conditions in past years. The results will help you decide how hot, cold, wet, or windy it might be!

Date:

Astronomy

Oct. 19, 2012 Rise Set
Actual Time 7:06 AM MDT 6:19 PM MDT
Civil Twilight 6:41 AM MDT 6:44 PM MDT
Nautical Twilight 6:12 AM MDT 7:13 PM MDT
Astronomical Twilight 5:43 AM MDT 7:41 PM MDT
Moon 11:41 AM MDT (10/19) 10:10 PM MDT (10/19)
Length of Visible Light 12h 03m
Length of Day
11h 13m
Waxing Crescent, 24% of the Moon is Illuminated
Oct 19
Waxing Crescent
Oct 21
First Quarter
Oct 29
Full
Nov 6
Last Quarter
Nov 13
New

Hourly Weather History & Observations

Time (MDT) Temp. Windchill Dew Point Humidity Pressure Visibility Wind Dir Wind Speed Gust Speed Precip Events Conditions
12:51 AM 52.0 °F - 33.1 °F 49% 29.91 in 10.0 mi SE 3.5 mph - N/A   Clear
1:51 AM 52.0 °F - 35.1 °F 53% 29.91 in 10.0 mi Calm Calm - N/A   Clear
2:51 AM 50.0 °F - 35.1 °F 57% 29.91 in 10.0 mi Calm Calm - N/A   Clear
3:51 AM 46.9 °F - 34.0 °F 61% 29.91 in 10.0 mi Calm Calm - N/A   Clear
5:51 AM 46.9 °F - 35.1 °F 63% 29.95 in 10.0 mi NNW 5.8 mph - N/A   Clear
6:51 AM 45.0 °F 42.6 °F 34.0 °F 65% 29.97 in 10.0 mi NNW 4.6 mph - N/A   Clear
7:51 AM 46.9 °F - 34.0 °F 61% 30.00 in 10.0 mi NNE 4.6 mph - N/A   Clear
8:51 AM 51.1 °F - 34.0 °F 52% 30.02 in 10.0 mi North 3.5 mph - N/A   Clear
9:51 AM 57.0 °F - 30.9 °F 37% 30.01 in 10.0 mi NNE 9.2 mph - N/A   Clear
11:51 AM 66.9 °F - 28.0 °F 23% 29.96 in 10.0 mi North 10.4 mph - N/A   Clear
12:51 PM 70.0 °F - 28.9 °F 22% 29.92 in 10.0 mi Variable 4.6 mph - N/A   Clear
1:51 PM 73.0 °F - 30.0 °F 20% 29.86 in 10.0 mi Calm Calm - N/A   Clear
2:51 PM 75.9 °F - 28.9 °F 18% 29.83 in 10.0 mi Calm Calm - N/A   Clear
3:51 PM 78.1 °F - 26.1 °F 15% 29.80 in 10.0 mi SSE 8.1 mph - N/A   Clear
4:51 PM 79.0 °F - 28.0 °F 15% 29.78 in 10.0 mi SSE 10.4 mph - N/A   Clear
5:51 PM 75.0 °F - 27.0 °F 17% 29.78 in 10.0 mi South 9.2 mph - N/A   Clear
6:51 PM 64.9 °F - 30.0 °F 27% 29.81 in 10.0 mi SSW 8.1 mph - N/A   Clear
7:51 PM 63.0 °F - 30.9 °F 30% 29.82 in 10.0 mi WSW 9.2 mph - N/A   Clear
8:51 PM 57.9 °F - 32.0 °F 37% 29.81 in 10.0 mi SW 8.1 mph - N/A   Clear
10:51 PM 53.1 °F - 33.1 °F 47% 29.80 in 10.0 mi SSW 3.5 mph - N/A   Clear
11:51 PM 53.1 °F - 33.1 °F 47% 29.78 in 10.0 mi South 4.6 mph - N/A   Clear